When you browse on this site, cookies collect data to enhance your experience and personalize the content and advertising you see.
Visit our Privacy Policy to learn more. By continuing to use the site, you agree to this use of cookies and data.
  • In United Kingdom
  • List of Countries
  • For 7 days
  • Water Temperature
  • Weather Map
  • Weather Widgets
  • user-avatar
    Login

    Hourly Weather Gülnar

    Today, 22 August, Thursday

    Time Temperature Precipitation Wind Pressure Humidity
    00:00 +22°C° 0 mm 3 mps 678 mmHg 44%
    01:00 +22°C° 0 mm 3 mps 677 mmHg 45%
    02:00 +21°C° 0 mm 4 mps 677 mmHg 45%
    03:00 +21°C° 0 mm 3 mps 677 mmHg 47%
    04:00 +21°C° 0 mm 3 mps 677 mmHg 48%
    05:00 +20°C° 0 mm 3 mps 677 mmHg 50%
    06:00 +22°C° 0 mm 3 mps 677 mmHg 46%
    07:00 +25°C° 0 mm 3 mps 678 mmHg 43%
    08:00 +26°C° 0 mm 2 mps 678 mmHg 39%
    09:00 +27°C° 0 mm 3 mps 678 mmHg 37%
    10:00 +29°C° 0 mm 3 mps 678 mmHg 35%
    11:00 +30°C° 0 mm 3 mps 679 mmHg 33%
    12:00 +30°C° 0 mm 3 mps 679 mmHg 32%
    13:00 +32°C° 0 mm 4 mps 678 mmHg 32%
    14:00 +32°C° 0 mm 4 mps 678 mmHg 31%
    15:00 +32°C° 0 mm 4 mps 678 mmHg 32%
    16:00 +30°C° 0 mm 4 mps 678 mmHg 33%
    17:00 +30°C° 0 mm 5 mps 678 mmHg 34%
    18:00 +29°C° 0 mm 4 mps 677 mmHg 37%
    19:00 +27°C° 0 mm 4 mps 677 mmHg 41%
    20:00 +26°C° 0 mm 4 mps 677 mmHg 44%
    21:00 +25°C° 0 mm 4 mps 677 mmHg 45%
    22:00 +25°C° 0 mm 5 mps 677 mmHg 46%
    23:00 +23°C° 0 mm 5 mps 677 mmHg 47%

    Tomorrow, 23 August, Friday

    Time Temperature Precipitation Wind Pressure Humidity
    00:00 +23°C° 0 mm 5 mps 676 mmHg 48%
    01:00 +23°C° 0 mm 4 mps 676 mmHg 49%
    02:00 +22°C° 0 mm 4 mps 676 mmHg 50%
    03:00 +22°C° 0 mm 4 mps 676 mmHg 51%
    04:00 +22°C° 0 mm 4 mps 676 mmHg 53%
    05:00 +21°C° 0 mm 4 mps 676 mmHg 55%
    06:00 +23°C° 0 mm 4 mps 676 mmHg 50%
    07:00 +25°C° 0 mm 5 mps 676 mmHg 46%
    08:00 +27°C° 0 mm 5 mps 677 mmHg 42%
    09:00 +28°C° 0 mm 5 mps 677 mmHg 38%
    10:00 +30°C° 0 mm 6 mps 678 mmHg 34%
    11:00 +32°C° 0 mm 6 mps 678 mmHg 30%
    12:00 +33°C° 0 mm 5 mps 678 mmHg 29%
    13:00 +33°C° 0 mm 5 mps 678 mmHg 28%
    14:00 +34°C° 0 mm 4 mps 677 mmHg 27%
    15:00 +33°C° 0 mm 4 mps 677 mmHg 28%
    16:00 +33°C° 0 mm 4 mps 677 mmHg 29%
    17:00 +32°C° 0 mm 4 mps 677 mmHg 30%
    18:00 +30°C° 0 mm 4 mps 677 mmHg 33%
    19:00 +28°C° 0 mm 5 mps 677 mmHg 35%
    20:00 +27°C° 0 mm 5 mps 677 mmHg 38%
    21:00 +26°C° 0 mm 5 mps 676 mmHg 40%
    22:00 +26°C° 0 mm 5 mps 676 mmHg 41%
    23:00 +25°C° 0 mm 5 mps 676 mmHg 43%

    Day after tomorrow, 24 August, Saturday

    Time Temperature Precipitation Wind Pressure Humidity
    00:00 +25°C° 0 mm 4 mps 676 mmHg 44%
    01:00 +23°C° 0 mm 4 mps 675 mmHg 46%
    02:00 +23°C° 0 mm 4 mps 675 mmHg 47%
    03:00 +22°C° 0 mm 4 mps 675 mmHg 48%
    04:00 +22°C° 0 mm 4 mps 675 mmHg 50%
    05:00 +22°C° 0 mm 4 mps 675 mmHg 51%
    06:00 +23°C° 0 mm 4 mps 676 mmHg 48%
    07:00 +26°C° 0 mm 4 mps 677 mmHg 45%
    08:00 +27°C° 0 mm 4 mps 677 mmHg 43%
    09:00 +28°C° 0 mm 4 mps 678 mmHg 39%
    10:00 +30°C° 0 mm 4 mps 678 mmHg 35%
    11:00 +32°C° 0 mm 4 mps 678 mmHg 31%
    12:00 +33°C° 0 mm 4 mps 678 mmHg 29%
    13:00 +34°C° 0 mm 3 mps 678 mmHg 28%
    14:00 +34°C° 0 mm 3 mps 678 mmHg 27%
    15:00 +34°C° 0 mm 3 mps 678 mmHg 28%
    16:00 +33°C° 0 mm 3 mps 677 mmHg 29%
    17:00 +33°C° 0 mm 4 mps 677 mmHg 31%
    18:00 +30°C° 0 mm 3 mps 677 mmHg 34%
    19:00 +28°C° 0 mm 3 mps 677 mmHg 36%
    20:00 +27°C° 0 mm 2 mps 677 mmHg 39%
    21:00 +26°C° 0 mm 3 mps 677 mmHg 39%
    22:00 +26°C° 0 mm 3 mps 677 mmHg 39%
    23:00 +26°C° 0 mm 3 mps 677 mmHg 39%

    25 August, Sunday

    Time Temperature Precipitation Wind Pressure Humidity
    00:00 +25°C° 0 mm 3 mps 676 mmHg 41%
    01:00 +25°C° 0 mm 3 mps 676 mmHg 43%
    02:00 +24°C° 0 mm 3 mps 676 mmHg 45%
    03:00 +24°C° 0 mm 3 mps 676 mmHg 47%
    04:00 +22°C° 0 mm 3 mps 676 mmHg 49%
    05:00 +23°C° 0 mm 2 mps 676 mmHg 51%
    06:00 +25°C° 0 mm 2 mps 676 mmHg 47%
    07:00 +27°C° 0 mm 2 mps 677 mmHg 42%
    08:00 +28°C° 0 mm 2 mps 677 mmHg 38%
    09:00 +29°C° 0 mm 2 mps 678 mmHg 38%
    10:00 +30°C° 0 mm 2 mps 678 mmHg 38%
    11:00 +31°C° 0 mm 2 mps 678 mmHg 38%
    12:00 +33°C° 0 mm 3 mps 678 mmHg 36%
    13:00 +33°C° 0 mm 3 mps 678 mmHg 34%
    14:00 +34°C° 0 mm 4 mps 678 mmHg 32%
    15:00 +33°C° 0.1 mm 4 mps 677 mmHg 35%
    16:00 +32°C° 0.1 mm 5 mps 677 mmHg 38%
    17:00 +30°C° 0.1 mm 5 mps 677 mmHg 42%
    18:00 +28°C° 0 mm 4 mps 677 mmHg 44%
    19:00 +27°C° 0 mm 4 mps 677 mmHg 47%
    20:00 +25°C° 0 mm 3 mps 677 mmHg 49%
    21:00 +25°C° 0 mm 3 mps 677 mmHg 48%
    22:00 +25°C° 0 mm 3 mps 677 mmHg 47%
    23:00 +25°C° 0 mm 3 mps 677 mmHg 46%

    26 August, Monday

    Time Temperature Precipitation Wind Pressure Humidity
    00:00 +24°C° 0 mm 3 mps 676 mmHg 47%
    01:00 +24°C° 0 mm 2 mps 676 mmHg 47%
    02:00 +24°C° 0 mm 2 mps 676 mmHg 48%
    03:00 +23°C° 0 mm 2 mps 676 mmHg 49%
    04:00 +23°C° 0 mm 2 mps 676 mmHg 50%
    05:00 +21°C° 0 mm 2 mps 676 mmHg 51%
    06:00 +24°C° 0 mm 2 mps 676 mmHg 47%
    07:00 +26°C° 0 mm 2 mps 677 mmHg 44%
    08:00 +28°C° 0 mm 2 mps 678 mmHg 40%
    09:00 +30°C° 0 mm 2 mps 678 mmHg 38%
    10:00 +31°C° 0 mm 3 mps 679 mmHg 36%
    11:00 +33°C° 0 mm 3 mps 679 mmHg 34%
    12:00 +33°C° 0.1 mm 3 mps 679 mmHg 35%
    13:00 +33°C° 0.1 mm 4 mps 678 mmHg 36%
    14:00 +33°C° 0.1 mm 4 mps 678 mmHg 37%
    15:00 +33°C° 0 mm 4 mps 678 mmHg 36%
    16:00 +33°C° 0 mm 4 mps 678 mmHg 34%
    17:00 +32°C° 0 mm 4 mps 678 mmHg 33%
    18:00 +30°C° 0 mm 4 mps 678 mmHg 34%
    19:00 +28°C° 0 mm 4 mps 678 mmHg 35%
    20:00 +26°C° 0 mm 3 mps 677 mmHg 35%
    21:00 +26°C° 0 mm 3 mps 677 mmHg 35%
    22:00 +25°C° 0 mm 4 mps 677 mmHg 35%
    23:00 +25°C° 0 mm 4 mps 677 mmHg 35%

    27 August, Tuesday

    Time Temperature Precipitation Wind Pressure Humidity
    00:00 +23°C° 0 mm 4 mps 677 mmHg 36%
    01:00 +23°C° 0 mm 4 mps 677 mmHg 38%
    02:00 +22°C° 0 mm 4 mps 677 mmHg 39%
    03:00 +22°C° 0 mm 4 mps 676 mmHg 40%
    04:00 +22°C° 0 mm 4 mps 676 mmHg 42%
    05:00 +22°C° 0 mm 3 mps 676 mmHg 43%
    06:00 +25°C° 0 mm 4 mps 677 mmHg 39%
    07:00 +26°C° 0 mm 4 mps 678 mmHg 35%
    08:00 +28°C° 0 mm 4 mps 678 mmHg 31%
    09:00 +30°C° 0 mm 4 mps 678 mmHg 29%
    10:00 +31°C° 0 mm 3 mps 679 mmHg 26%
    11:00 +33°C° 0 mm 3 mps 679 mmHg 24%
    12:00 +33°C° 0 mm 3 mps 679 mmHg 27%
    13:00 +33°C° 0 mm 3 mps 678 mmHg 30%
    14:00 +33°C° 0 mm 4 mps 678 mmHg 33%
    15:00 +33°C° 0 mm 4 mps 678 mmHg 33%
    16:00 +32°C° 0 mm 4 mps 678 mmHg 33%
    17:00 +32°C° 0 mm 4 mps 677 mmHg 33%
    18:00 +29°C° 0 mm 4 mps 677 mmHg 33%
    19:00 +27°C° 0 mm 3 mps 677 mmHg 32%
    20:00 +25°C° 0 mm 3 mps 677 mmHg 32%
    21:00 +25°C° 0 mm 3 mps 677 mmHg 31%
    22:00 +25°C° 0 mm 4 mps 677 mmHg 31%
    23:00 +23°C° 0 mm 4 mps 676 mmHg 30%
    Show more